User: anonymous   Login
Location: Unspecified
(0.0000°N, 0.0000°E)
Time: 22:48:53
(UTC+00:00)
Language:

BIROS - Orbit

View from above orbital plane
View from above orbital plane
View from above satellite
View from above satellite

Ground track
Ground track

The orbit data is extracted from the following two-line orbital elements,

1 41604U 16040F   17113.90368393 +.00001682 +00000-0 +79959-4 0  9990
2 41604 097.4671 176.8016 0010656 256.5764 103.4284 15.20550156046432
Epoch (UTC): 23 April 2017 21:41:18
Eccentricity: 0.0010656
inclination: 97.4671°
perigee height: 497 km
apogee height: 511 km
right ascension of ascending node: 176.8016°
argument of perigee: 256.5764°
revolutions per day: 15.20550156
mean anomaly at epoch: 103.4284°
orbit number at epoch: 4643

The dashed part of the orbit path shows where the satellite is in the earth's shadow,  

DLR